Location: Cahas Mountain Overlook
(37.0833°N, 80.1000°W)
Time: 09:26:45
(UTC-04:00)

Vanguard 1 Rocket - All Passes

Search period start: 11 September 2024 00:00
Search period end: 21 September 2024 00:00
Orbit: 649 x 4220 km, 34.3° (Epoch: 10 September)

Date Brightness Start Highest point End Pass type
(mag) Time Alt. Az. Time Alt. Az. Time Alt. Az.
11 Sep - 03:48:13 10° SSW 04:00:49 40° SE 04:21:22 10° ENE visible
11 Sep - 06:11:51 10° WSW 06:29:45 75° SSE 06:56:10 10° E visible
11 Sep - 08:39:44 10° W 09:03:15 82° S 09:28:03 10° ESE daylight
11 Sep - 11:10:50 10° WNW 11:36:13 61° SSW 11:55:40 10° SE daylight
11 Sep - 13:46:41 10° W 14:04:14 26° SW 14:17:04 10° S daylight
12 Sep - 02:38:43 10° S 02:48:15 25° SE 03:02:35 10° E visible
12 Sep - 04:59:39 10° SW 05:14:36 63° SSE 05:39:21 10° ENE visible
12 Sep - 07:25:45 10° W 07:46:23 83° S 08:12:48 10° E daylight
12 Sep - 09:55:13 10° W 10:20:16 73° SSW 10:42:44 10° ESE daylight
12 Sep - 12:28:09 10° WNW 12:50:43 40° SW 13:07:17 10° SSE daylight
13 Sep - 01:34:07 10° SE 01:36:29 11° ESE 01:39:06 10° ESE visible
13 Sep - 03:48:25 10° SSW 04:00:44 47° SE 04:21:54 10° ENE visible
13 Sep - 06:12:36 10° WSW 06:30:06 78° SSE 06:56:37 10° E visible
13 Sep - 08:40:29 10° W 09:03:36 80° S 09:28:36 10° ESE daylight
13 Sep - 11:11:25 10° WNW 11:36:05 55° SW 11:55:50 10° SE daylight
13 Sep - 13:48:35 10° W 14:03:45 21° SW 14:15:41 10° SSW daylight
14 Sep - 02:38:21 10° S 02:48:02 30° SE 03:03:43 10° E visible
14 Sep - 05:00:17 10° SW 05:14:49 68° SSE 05:39:43 10° E visible
14 Sep - 07:26:34 10° W 07:46:48 83° S 08:13:20 10° E daylight
14 Sep - 09:55:52 10° W 10:20:21 67° SSW 10:43:04 10° SE daylight
14 Sep - 12:29:05 10° W 12:50:19 34° SW 13:06:46 10° S daylight
15 Sep - 01:30:38 10° SSE 01:36:16 15° ESE 01:43:38 10° E visible
15 Sep - 03:48:50 10° SW 04:00:48 53° SE 04:22:19 10° ENE visible
15 Sep - 06:13:26 10° WSW 06:30:31 81° S 06:57:04 10° E visible
15 Sep - 08:41:15 10° W 09:03:52 77° SSW 09:29:03 10° ESE daylight
15 Sep - 11:12:05 10° WNW 11:35:50 49° SW 11:55:43 10° SSE daylight
15 Sep - 13:51:35 10° W 14:03:16 16° WSW 14:13:11 10° SSW daylight
16 Sep - 02:38:21 10° SSW 02:47:58 36° SE 03:04:31 10° ENE visible
16 Sep - 05:01:02 10° WSW 05:15:11 73° SSE 05:40:03 10° E visible
16 Sep - 07:27:25 10° W 07:47:13 82° S 08:13:48 10° ESE daylight
16 Sep - 09:56:32 10° WNW 10:20:18 62° SSW 10:43:12 10° SE daylight
16 Sep - 12:30:22 10° W 12:49:50 29° SW 13:05:49 10° S daylight
17 Sep - 01:29:26 10° SSE 01:36:07 19° SE 01:45:47 10° E visible
17 Sep - 03:49:25 10° SW 04:01:00 60° SSE 04:22:39 10° ENE visible
17 Sep - 06:14:19 10° W 06:31:00 82° S 06:57:29 10° E visible
17 Sep - 08:42:00 10° W 09:04:04 72° SSW 09:29:20 10° ESE daylight
17 Sep - 11:12:55 10° WNW 11:35:29 42° SW 11:55:19 10° SSE daylight
17 Sep - 13:57:49 10° WSW 14:02:48 11° WSW 14:07:30 10° SW daylight
18 Sep - 02:38:37 10° SSW 02:48:01 42° SE 03:05:05 10° ENE visible
18 Sep - 05:01:54 10° WSW 05:15:38 77° SSE 05:40:23 10° E visible
18 Sep - 07:28:17 10° W 07:47:37 80° S 08:14:10 10° ESE daylight
18 Sep - 09:57:16 10° WNW 10:20:11 56° SSW 10:43:06 10° SE daylight
18 Sep - 12:32:12 10° W 12:49:22 23° SW 13:04:14 10° S daylight
19 Sep - 01:29:00 10° S 01:36:04 24° SE 01:47:11 10° E visible
19 Sep - 03:50:08 10° SW 04:01:22 66° SSE 04:22:57 10° E visible
19 Sep - 06:15:14 10° W 06:31:31 82° S 06:57:51 10° E visible
19 Sep - 08:42:46 10° W 09:04:11 67° SSW 09:29:26 10° SE daylight
19 Sep - 11:13:57 10° W 11:35:06 36° SW 11:54:32 10° SSE daylight
20 Sep - 02:39:06 10° SW 02:48:15 49° SE 03:05:32 10° ENE visible
20 Sep - 05:02:48 10° WSW 05:16:11 80° S 05:40:42 10° E visible
20 Sep - 07:29:09 10° W 07:47:58 76° SSW 08:14:25 10° ESE daylight
20 Sep - 09:58:05 10° WNW 10:19:59 49° SW 10:42:43 10° SSE daylight
20 Sep - 12:34:58 10° W 12:48:55 18° SW 13:01:40 10° SSW daylight
